Location: Hartford
(41.7640°N, 72.6860°W)
Time: 19:43:38
(UTC-04:00)

ISS - All Passes

Search period start: 31 May 2016 00:00
Search period end: 10 June 2016 00:00
Orbit: 402 x 404 km, 51.6° (Epoch: 31 May)

Date Brightness Start Highest point End Pass type
(mag) Time Alt. Az. Time Alt. Az. Time Alt. Az.
31 May - 00:27:50 10° NNW 00:29:58 16° N 00:32:06 10° NE visible
31 May - 02:03:55 10° NW 02:07:03 42° NNE 02:10:10 10° ESE visible
31 May - 03:40:40 10° W 03:43:20 23° SW 03:46:00 10° S visible
31 May - 20:19:30 10° SW 20:22:46 87° SE 20:26:02 10° NE daylight
31 May - 21:56:59 10° WNW 21:59:33 21° NNW 22:02:08 10° NE visible
31 May - 23:34:58 10° NNW 23:36:54 15° N 23:38:50 10° NE visible
01 Jun - 01:11:16 10° NW 01:14:09 28° NNE 01:17:01 10° E visible
01 Jun - 02:47:34 10° WNW 02:50:42 45° SW 02:53:49 10° SSE visible
01 Jun - 19:26:56 10° SSW 19:30:03 44° SE 19:33:11 10° ENE daylight
01 Jun - 21:03:42 10° W 21:06:35 28° NNW 21:09:29 10° NE visible
01 Jun - 22:41:53 10° NW 22:43:49 15° N 22:45:46 10° NNE visible
02 Jun - 00:18:37 10° NW 00:21:11 20° NNE 00:23:43 10° ENE visible
02 Jun - 01:54:42 10° NW 01:57:59 89° SSE 02:01:13 10° SE visible
02 Jun - 03:33:34 10° WSW 03:33:55 10° SW 03:34:15 10° SW night (unlit)
02 Jun - 18:34:46 10° S 18:37:24 23° SE 18:40:03 10° E daylight
02 Jun - 20:10:32 10° WSW 20:13:40 43° NNW 20:16:50 10° NE daylight
02 Jun - 21:48:35 10° NW 21:50:45 16° N 21:52:54 10° NNE visible
02 Jun - 23:25:55 10° NNW 23:28:08 17° N 23:30:22 10° NE visible
03 Jun - 01:01:58 10° NW 01:05:10 49° NNE 01:08:21 10° ESE visible
03 Jun - 02:38:56 10° W 02:41:22 19° SW 02:43:48 10° S night (unlit)
03 Jun - 17:43:28 10° SSE 17:44:50 12° SE 17:46:11 10° ESE daylight
03 Jun - 19:17:35 10° WSW 19:20:51 78° NNW 19:24:06 10° NE daylight
03 Jun - 20:55:14 10° WNW 20:57:42 19° NNW 21:00:10 10° NNE visible
03 Jun - 22:33:05 10° NNW 22:35:04 15° N 22:37:02 10° NE visible
04 Jun - 00:09:18 10° NW 00:12:16 31° NNE 00:15:13 10° E visible
04 Jun - 01:45:41 10° WNW 01:48:45 37° SW 01:51:46 10° SSE visible
04 Jun - 18:24:53 10° SW 18:28:04 54° SE 18:31:17 10° ENE daylight
04 Jun - 20:01:53 10° W 20:04:41 25° NNW 20:07:30 10° NE daylight
04 Jun - 21:40:03 10° NW 21:41:58 15° N 21:43:54 10° NE visible
04 Jun - 23:16:39 10° NW 23:19:18 22° NNE 23:21:56 10° ENE visible
05 Jun - 00:52:46 10° WNW 00:56:01 74° SW 00:59:16 10° SE visible
05 Jun - 17:32:33 10° SSW 17:35:23 27° SE 17:38:14 10° ENE daylight
05 Jun - 19:08:40 10° W 19:11:45 38° NNW 19:14:50 10° NE daylight
05 Jun - 20:46:48 10° NW 20:48:52 16° N 20:50:56 10° NNE daylight
05 Jun - 22:23:57 10° NNW 22:26:15 18° NNE 22:28:33 10° ENE visible
05 Jun - 23:59:58 10° NW 00:03:13 59° NNE 00:06:26 10° ESE visible
06 Jun - 01:37:13 10° W 01:39:21 16° SW 01:41:28 10° S night (unlit)
06 Jun - 16:40:52 10° SSE 16:42:47 15° SE 16:44:41 10° E daylight
06 Jun - 18:15:37 10° WSW 18:18:52 65° NNW 18:22:07 10° NE daylight
06 Jun - 19:53:25 10° WNW 19:55:47 18° NNW 19:58:09 10° NNE daylight
06 Jun - 21:31:08 10° NNW 21:33:10 15° N 21:35:12 10° NE visible
06 Jun - 23:07:16 10° NW 23:10:19 35° NNE 23:13:21 10° E visible
07 Jun - 00:43:48 10° WNW 00:46:43 30° SW 00:49:37 10° SSE visible
07 Jun - 17:22:50 10° SW 17:26:03 66° SE 17:29:19 10° ENE daylight
07 Jun - 19:00:02 10° WNW 19:02:45 23° NNW 19:05:28 10° NE daylight
07 Jun - 20:38:09 10° NW 20:40:03 14° N 20:41:58 10° NE daylight
07 Jun - 22:14:36 10° NW 22:17:21 24° NNE 22:20:06 10° ENE visible
07 Jun - 23:50:47 10° WNW 23:54:00 61° SW 23:57:13 10° SE visible
08 Jun - 16:30:22 10° SSW 16:33:20 33° SE 16:36:19 10° ENE daylight
08 Jun - 18:06:45 10° W 18:09:46 33° NNW 18:12:47 10° NE daylight
08 Jun - 19:44:55 10° NW 19:46:56 15° N 19:48:57 10° NNE daylight
08 Jun - 21:21:54 10° NNW 21:24:19 19° NNE 21:26:43 10° ENE visible
08 Jun - 22:57:57 10° NW 23:01:12 70° NNE 23:04:27 10° ESE visible
09 Jun - 00:35:34 10° W 00:37:15 13° SW 00:38:57 10° SSW visible
09 Jun - 15:38:25 10° S 15:40:41 18° SE 15:42:58 10° E daylight
09 Jun - 17:13:38 10° WSW 17:16:51 55° NNW 17:20:04 10° NE daylight
09 Jun - 18:51:33 10° WNW 18:53:49 17° NNW 18:56:07 10° NNE daylight
09 Jun - 20:29:07 10° NNW 20:31:13 16° N 20:33:20 10° NE daylight
09 Jun - 22:05:12 10° NW 22:08:19 40° NNE 22:11:25 10° E visible
09 Jun - 23:41:52 10° WNW 23:44:38 25° SW 23:47:23 10° SSE visible
